Messages
logo

Welcome to Perpetual Archive, a project to automatically archive and share YouTube Channels at maximum quality, as an alternative to incremental torrents.


Site Feedback Survey, Greatly Appreciated


Over 2TB Of Downloads!

Folder
Up
0 folders, 230 files, 10.5 GBytes
Select

0 items selected

Actions
Get list
Server information Server time: 2/17/2019 2:51:07 PM Server uptime: (22 days) 12:50:22

Have a channel request, link to something I'm missing, or takedown request?


Contact Me Here

Want to donate to the project to help buy more storage or pay for power?


BTC:

1Gm74eQn7yeqJsyHS6fuM1gizjgsyPhAqY

BCH:

1NSkY7dRkqsyTS8isWa1Q7cXERHFJgy7Rn

LTC:

LSFFFrq4FDXy7Sbjeq1gxnuq686HKdJMa4

Name.extension Size Timestamp⇓ Hits
Massive Mercury Arc Light Bulb.mp4 13.7 MB11/5/2017 6:53:55 AM1
Electric Kettle Safety Test.mp4 13.2 MB11/5/2017 6:54:35 AM1
Shorting out a DC generator motor.mp4 12.4 MB11/5/2017 6:55:11 AM1
Photonicinduction Does Flames Gardening.mp4 11.7 MB11/5/2017 6:55:39 AM1
High Current Bare Hands !.mp4 11.4 MB11/5/2017 6:56:02 AM1
Vacuum Cleaner Has Swimming Lessons.mp4 11.4 MB11/5/2017 6:56:20 AM1
LCD Light Tubes 4 Tiny Tubes.mp4 11.0 MB11/5/2017 6:56:42 AM1
Arc In Big Light Bulb And Fries MOT.mp4 10.6 MB11/5/2017 6:57:11 AM1
DVD Zapp.mp4 10.2 MB11/5/2017 6:57:14 AM1
320 KV High Voltage Fluorescent Tubes.mp4 10.0 MB11/5/2017 6:57:31 AM2
High Energy Capacitor Demo.mp4 9.9 MB11/5/2017 6:57:50 AM1
Dyson Motor up in Flames.mp4 9.8 MB11/5/2017 6:58:06 AM2
Halide Arc Lamp Making Synthesizer Noises Without Speakers.mp4 9.5 MB11/5/2017 6:58:21 AM2
Hot Arc Melts Copper.mp4 9.2 MB11/5/2017 6:58:35 AM1
Xenon Flash and Strobe Tubes.mp4 9.0 MB11/5/2017 6:58:45 AM1
Inside An Industrial Fuse.mp4 9.0 MB11/5/2017 6:58:56 AM1
Out Take ( naughty ).mp4 8.8 MB11/5/2017 6:59:07 AM1
Funny Phone Zap Lightning Strike.mp4 8.6 MB11/5/2017 6:59:20 AM2
High Voltage Jacob's Ladder ( short version ).mp4 8.6 MB11/5/2017 6:59:40 AM1
Extreme High Current Lighter.mp4 8.4 MB11/5/2017 6:59:41 AM1
Big Capacitor Vents With Flames And Explodes.mp4 8.3 MB11/5/2017 6:59:54 AM2
Chair Propulsion ( Clip ).mp4 8.1 MB11/5/2017 7:00:07 AM2
Ultimate High Voltage Test Transformer 200 kv.mp4 8.0 MB11/5/2017 7:00:19 AM1
Cleaning The BBQ With A Bang.mp4 7.8 MB11/5/2017 7:00:31 AM2
Washing Machine Self Destructs Slow Motion.mp4 7.7 MB11/5/2017 7:00:40 AM1
Big Bulb And Microwave.mp4 7.7 MB11/5/2017 7:00:50 AM2
Transformer and control panel.mp4 7.6 MB11/5/2017 7:01:02 AM1
Lighthouse Lamp Too Bright For Camera.mp4 7.6 MB11/5/2017 7:01:11 AM1
Thousand Amp Transformer Melts Spanner.mp4 7.6 MB11/5/2017 7:01:19 AM1
Car Battery Short Circuit.mp4 7.6 MB11/5/2017 7:01:27 AM2
Over Charged Battery Screams And Vents Off Gas.mp4 7.6 MB11/5/2017 7:01:31 AM1
400w Halide Pushed To 800w.mp4 7.4 MB11/5/2017 7:01:35 AM1
Fastest Kettle Boil !.mp4 7.0 MB11/5/2017 7:01:44 AM2
Ultra Violet Heating Element.mp4 6.7 MB11/5/2017 7:01:53 AM1
Magnetic Induction Playing With Motors.mp4 6.6 MB11/5/2017 7:02:04 AM1
Washing Machine Self Destructs ( Original ).mp4 6.4 MB11/5/2017 7:02:24 AM1
Naughty Fuse Trick.mp4 6.6 MB11/5/2017 7:02:25 AM1
Modified LED To RGB Torch.mp4 6.3 MB11/5/2017 7:02:30 AM1
Huge Mercury Lamp In Microwave.mp4 6.2 MB11/5/2017 7:02:38 AM1
Extreme Electric Motor Burn Out.mp4 6.2 MB11/5/2017 7:02:54 AM1
Big Burn Up With Magnifier In The Sun ( short version ).mp4 6.0 MB11/5/2017 7:02:54 AM2
Rabbit Explodes.mp4 5.2 MB11/5/2017 7:03:02 AM1
Angry Vacuum Cleaner On Steroids.mp4 5.1 MB11/5/2017 7:03:06 AM5
High Voltage On A Mirror ( short version ).mp4 5.1 MB11/5/2017 7:03:12 AM2
100kv Diode Assembly ( solid state ).mp4 5.0 MB11/5/2017 7:03:19 AM3
Helicopter Crash High Voltage.mp4 4.6 MB11/5/2017 7:03:25 AM1
High Voltage Transformer close up 200 kv.mp4 4.5 MB11/5/2017 7:03:32 AM1
Cold Cathode Lamp Making Synthesizer Noises Without Speakers.mp4 4.4 MB11/5/2017 7:03:39 AM2
Wire Wound Resistor Pushed to the Limit.mp4 4.4 MB11/5/2017 7:03:46 AM1
1 KW Mercury lamp with 3.5 KW Halogen Ballast.mp4 4.2 MB11/5/2017 7:03:53 AM2
TV Assisted Suicide.mp4 3.7 MB11/5/2017 7:03:58 AM1
Vacuum Cleaner Sucks Up Petrol ( short version ).mp4 3.7 MB11/5/2017 7:04:04 AM1
Inside Look At Industrial Fuse When It Blows.mp4 3.6 MB11/5/2017 7:04:09 AM1
Camcorder In Microwave Recording ! ( short clip ).mp4 3.6 MB11/5/2017 7:04:12 AM2
Dangerous Transformer Scrapped.mp4 3.4 MB11/5/2017 7:04:14 AM1
Mercury Lamp Pulling 7,000 Watts Direct On Mains - Ballast Bypassed !!.mp4 3.0 MB11/5/2017 7:04:21 AM2
Big High Voltage Arc 200 kv +.mp4 2.3 MB11/5/2017 7:04:26 AM2
High Voltage Time ( clip ).mp4 1.5 MB11/5/2017 7:04:27 AM1
Soduim Arc Lamp Making Synthesizer Noises Without Speakers.mp4 1.5 MB11/5/2017 7:04:28 AM2
Overbright CFL.mp4 3.0 MB11/5/2017 7:04:28 AM1
200,000 Volts from 1 x AA Battery.mp4 1.2 MB11/5/2017 7:04:31 AM4
1306332902.jpg 75.1 KB11/5/2017 7:04:32 AM2
Photonicinduction- His First Video.mp4 1.4 MB11/5/2017 7:04:32 AM1
Pushed The 400 watt Sodium Too Hard and Blew It.mp4 13.6 MB11/5/2017 7:05:07 AM1
Commercial Washing Machine Final Moments.mp4 12.3 MB11/5/2017 7:25:22 AM2
Having A Rant ( Out Take ).mp4 15.5 MB11/5/2017 7:54:41 AM2
Arc Rectifier.mp4 24.3 MB11/5/2017 9:29:40 AM2
Electric Wheel Chair Mayhem.mp4 20.5 MB11/5/2017 9:36:42 AM2
Electrons and Photons Sodium Lamp Rare Close Up.mp4 21.3 MB11/5/2017 10:09:43 AM2
Electric Lighter Ignition.mp4 16.0 MB11/5/2017 10:25:40 AM2
Battery Gets Destroyed By Welder.mp4 14.7 MB11/5/2017 10:34:39 AM1
Hair Dryer Fun.mp4 27.1 MB11/5/2017 10:35:08 AM1
Alarm Clock Pop !.mp4 8.6 MB11/5/2017 10:35:39 AM2
Lawn Mower Motor Fried With 2,000 Volts !.mp4 15.2 MB11/5/2017 10:37:41 AM1
Health And Safety Common Sense.mp4 20.8 MB11/5/2017 10:45:56 AM2
Naughty Boy ''Time''.mp4 15.0 MB11/5/2017 10:53:17 AM1
Henry Vacuum Motor Last Moments.mp4 26.8 MB11/5/2017 10:57:07 AM2
Tiny Electric Arc Making The Worst Synthesizer Noises Ever Made TOO LOUD!.mp4 9.7 MB11/5/2017 11:04:26 AM1
Erase CD with HV.mp4 11.5 MB11/5/2017 11:12:42 AM1
Car Battery Damaged.mp4 11.1 MB11/5/2017 11:13:12 AM2
Capacitor Smoke Generator.mp4 30.9 MB11/5/2017 11:23:20 AM2
TV Electron Gun Explodes.mp4 37.7 MB11/5/2017 11:31:33 AM1
Light Entertainment.mp4 18.4 MB11/5/2017 11:36:55 AM1
Coconut Explodes Using Electricity ! ( original full on version ).mp4 32.6 MB11/5/2017 11:42:36 AM2
Big Battery Hack.mp4 44.1 MB11/5/2017 11:44:50 AM3
Discharge Lighting Secret Invention Energy Saving.mp4 16.0 MB11/5/2017 11:48:23 AM2
Big Capacitor Safety.mp4 40.4 MB11/5/2017 11:49:37 AM2
Blender V Fluorescent Tubes.mp4 37.1 MB11/5/2017 11:50:52 AM1
Spinning Hard Drive Speaker !.mp4 12.4 MB11/5/2017 11:53:08 AM1
Bigger Variac and Transformer.mp4 93.5 MB11/5/2017 11:57:32 AM2
Toaster Gets Toasted !.mp4 16.5 MB11/5/2017 11:58:22 AM1
Fly Zapper Over-Kill.mp4 17.5 MB11/5/2017 12:06:36 PM2
Photonicinduction Makes Cake.mp4 46.6 MB11/5/2017 12:08:17 PM1
500 Internal Server Error.mp4 29.6 MB11/5/2017 12:10:09 PM3
Extreme Marbles.mp4 62.5 MB11/5/2017 12:11:16 PM1
Photonicinduction's TV Channel.mp4 20.5 MB11/5/2017 12:11:51 PM2
Multimeter Over Volt.mp4 70.0 MB11/5/2017 12:14:53 PM2
Huge Light Bulb Damages Microwave.mp4 13.2 MB11/5/2017 12:17:01 PM2
Egg & Soldiers.mp4 61.7 MB11/5/2017 12:19:08 PM2
Twin Jacob's Ladder 200 KV.mp4 24.4 MB11/5/2017 12:20:19 PM1
Light Switch & MCB Explode.mp4 63.2 MB11/5/2017 12:20:46 PM1
Mirror and Broom Handle Get 200 KV.mp4 20.1 MB11/5/2017 12:20:46 PM1
Mercury Arc Rectifier AR63 ( Excitron ) CV3710.mp4 17.9 MB11/5/2017 12:21:51 PM1
1100 Amp High Current Meltdown ( Extreme ! ).mp4 48.5 MB11/5/2017 12:22:21 PM3
UV Shield In Action.mp4 40.2 MB11/5/2017 12:24:49 PM1
Very High Voltage.mp4 27.2 MB11/5/2017 12:25:56 PM1
Microwave Transformer vs Inverter PSU.mp4 90.3 MB11/5/2017 12:26:27 PM1
Exploding TV With Coconut.mp4 49.6 MB11/5/2017 12:27:00 PM2
300,000 Volts On A Television !.mp4 117.8 MB11/5/2017 12:28:02 PM1
Rip From Duel Disc.mp4 19.6 MB11/5/2017 12:29:31 PM1
Underwater Motor Test 240v.mp4 49.2 MB11/5/2017 12:30:01 PM1
Destructive Charge Test.mp4 57.7 MB11/5/2017 12:30:46 PM2
Car Battery Explosion Test.mp4 31.8 MB11/5/2017 12:31:17 PM2
Extreme Speed Record Player.mp4 24.1 MB11/5/2017 12:32:34 PM1
Old Diodes- Rectifiers.mp4 62.5 MB11/5/2017 12:33:25 PM1
Building A Monster DC PSU.mp4 165.5 MB11/5/2017 12:33:49 PM1
Phone + Camera + Motor Pop.mp4 47.9 MB11/5/2017 12:33:49 PM1
Variac Over-Drive.mp4 68.4 MB11/5/2017 12:34:37 PM1
Prototype 300 KV Control Panel Test.mp4 42.5 MB11/5/2017 12:38:55 PM1
Halide Lamp Meltdown.mp4 102.1 MB11/5/2017 12:39:23 PM1
12 KW Halide Full Power.mp4 60.2 MB11/5/2017 12:40:25 PM2
50,000 Amp Transformer Completed.mp4 107.7 MB11/5/2017 12:40:43 PM1
Clock Radio Fail.mp4 40.4 MB11/5/2017 1:00:19 PM1
Oversize CFL Lamp v MOT.mp4 42.1 MB11/5/2017 1:01:01 PM1
Banging Christmas Balls.mp4 43.0 MB11/5/2017 1:02:51 PM2
How To Electrocute Your Mates !.mp4 26.1 MB11/5/2017 1:04:00 PM2
Busted Paper Shreddder.mp4 45.6 MB11/5/2017 1:08:41 PM2
Bosch Dishwasher In Flames.mp4 211.4 MB11/5/2017 1:09:02 PM1
Computer Skills.mp4 48.0 MB11/5/2017 1:10:42 PM1
Leathal Exploding Coconut Experiment.mp4 33.8 MB11/5/2017 1:11:25 PM2
Far Too Much Current !!.mp4 123.1 MB11/5/2017 1:11:44 PM1
Computer Microwaved While On !.mp4 60.1 MB11/5/2017 1:12:25 PM2
240KV Diode Pop Charging Capacitor.mp4 50.5 MB11/5/2017 1:14:37 PM2
Clothes Iron Meltdown.mp4 112.8 MB11/5/2017 1:14:52 PM1
Melon Pop.mp4 40.8 MB11/5/2017 1:15:51 PM1
Random Smash and Bangs.mp4 154.1 MB11/5/2017 1:16:05 PM1
Alarm Battery Fail.mp4 45.8 MB11/5/2017 1:18:01 PM2
Burner Explosions.mp4 47.5 MB11/5/2017 1:18:30 PM2
Argon Laser Meltdown.mp4 155.4 MB11/5/2017 1:19:00 PM1
Photonicinduction Says Goodbye - YouTube.mp4 116.0 MB11/5/2017 1:19:23 PM1
300 KV On A Floating Lamp.mp4 35.3 MB11/5/2017 1:19:39 PM2
Sloppy Cement Mix.mp4 29.8 MB11/5/2017 1:19:54 PM1
Weather Balloon Pop.mp4 41.8 MB11/5/2017 1:20:11 PM1
CD player, Halide Lamp, Hot Stick Get HV Treatment.mp4 83.6 MB11/5/2017 1:20:29 PM2
Corona Wind Electric Flames.mp4 44.5 MB11/5/2017 1:20:54 PM1
Light Bulb Levitation.mp4 22.9 MB11/5/2017 1:21:24 PM2
Dangerous High Voltage Transformer Arcs.mp4 44.0 MB11/5/2017 1:21:46 PM2
12,000 Watt Halide Lamp.mp4 50.8 MB11/5/2017 1:21:46 PM2
Food Mixer Burn Out.mp4 92.5 MB11/5/2017 1:21:50 PM2
Micro Drill Burn Out.mp4 19.6 MB11/5/2017 1:22:25 PM1
Electrical Interesting Bits Flash and Bangs.mp4 48.4 MB11/5/2017 1:23:34 PM2
Perfect Invention.mp4 56.0 MB11/5/2017 1:23:50 PM1
Lawn Mower Motor Burn Out ( In Detail ).mp4 47.9 MB11/5/2017 1:24:02 PM2
CRT Fun.mp4 87.1 MB11/5/2017 1:24:30 PM1
Plasma Ball Overload.mp4 126.3 MB11/5/2017 1:24:30 PM1
1000 mW Laser Vid.mp4 99.2 MB11/5/2017 1:25:01 PM1
Ultra High Energy Can Crush 80KA.mp4 103.0 MB11/5/2017 1:25:16 PM1
Electric Motor Playing Music !.mp4 13.4 MB11/5/2017 1:25:16 PM1
Mad Science 500 KeV.mp4 47.7 MB11/5/2017 1:25:50 PM2
The Variac.mp4 83.5 MB11/5/2017 1:26:10 PM1
Fastest Car Battery Charger.mp4 63.3 MB11/5/2017 1:26:23 PM3
Hot Wire Foam Cutter.mp4 112.2 MB11/5/2017 1:26:42 PM1
Easy Coil Gun.mp4 43.9 MB11/5/2017 1:27:09 PM1
Laptop Pop.mp4 21.3 MB11/5/2017 1:27:39 PM1
Lithium Battery Vents Off Flames.mp4 77.4 MB11/5/2017 1:28:46 PM2
3 Phase Motor Run And Pop.mp4 31.8 MB11/5/2017 1:29:06 PM2
Vibrator Overload.mp4 139.2 MB11/5/2017 1:30:43 PM1
More Than A 100w Burning Laser Melts Lead.mp4 35.4 MB11/5/2017 1:30:58 PM1
Exploding Fruit Electrical Entertainment.mp4 97.8 MB11/5/2017 1:31:28 PM1
Hand Held Insect Zapper Boost.mp4 40.3 MB11/5/2017 1:31:34 PM1
Electronics Overloaded.mp4 33.2 MB11/5/2017 1:31:59 PM2
Electrical Underwater Arcs.mp4 38.3 MB11/5/2017 1:31:59 PM2
Turntable Malfunction ( Extreme ).mp4 26.1 MB11/5/2017 1:32:40 PM1
TV Microwaved While On !.mp4 30.8 MB11/5/2017 1:33:04 PM1
Motor Inverters Pop Too Easy !!.mp4 132.3 MB11/5/2017 1:33:29 PM1
Drill and Fan Burn Out.mp4 77.5 MB11/5/2017 1:33:42 PM2
Inverter Welder + Flames.mp4 57.4 MB11/5/2017 1:34:13 PM1
Electromagnet Burst !.mp4 91.6 MB11/5/2017 1:34:24 PM2
Carbon Arc Lamp Lights Up Neighbourhood.mp4 48.4 MB11/5/2017 1:34:59 PM2
Big Boy's Electrical Transformer.mp4 21.9 MB11/5/2017 1:35:29 PM2
My Edited Video.mp4 26.9 MB11/5/2017 1:35:48 PM1
Smoke Alarm = Water Detector.mp4 14.3 MB11/5/2017 1:36:10 PM2
DIY Transformer 10,000 Amps or 100 KV.mp4 128.1 MB11/5/2017 1:36:10 PM1
Silly Speed Induction Motor.mp4 105.6 MB11/5/2017 1:36:51 PM1
Photonicinduction's Law.mp4 51.7 MB11/5/2017 1:37:19 PM1
Petrol And Electricity Conductivity Test.mp4 33.8 MB11/5/2017 1:37:19 PM2
75w HID Torch.mp4 118.1 MB11/5/2017 1:37:32 PM1
Little Things On A Big Variac.mp4 24.4 MB11/5/2017 1:37:42 PM1
Fun With Arc Lamps.mp4 116.5 MB11/5/2017 1:37:53 PM1
Washing Machine Extreme Speed Destruction !!!!!.mp4 31.8 MB11/5/2017 1:38:02 PM1
Hot Potential Divider.mp4 130.6 MB11/5/2017 1:38:43 PM1
Light Bulb Hazzards And Experiments.mp4 32.5 MB11/5/2017 1:39:37 PM1
Argon DPSS Laser Update.mp4 117.8 MB11/5/2017 1:39:51 PM2
Big Boys PSU Pt 1.mp4 157.8 MB11/5/2017 1:40:03 PM1
Rabbit Dies Of Electricity.mp4 73.3 MB11/5/2017 1:40:29 PM1
12kw Halide Lamp Ignition.mp4 100.2 MB11/5/2017 1:41:00 PM1
CLK 500 Cold Start- Shout out to V8Jagnut.mp4 81.1 MB11/5/2017 1:41:11 PM2
Over Volting A CRT with 150 KV.mp4 120.5 MB11/5/2017 1:41:41 PM1
Hot Induction Loop.mp4 111.7 MB11/5/2017 1:41:56 PM1
Electrical Fry Up Smoke Test !.mp4 110.2 MB11/5/2017 1:42:12 PM1
Apple Gets Blasted With Electricity.mp4 40.0 MB11/5/2017 1:42:42 PM2
Big Boys PSU Pt 2.mp4 89.3 MB11/5/2017 1:42:42 PM2
Coin Shrink Experiment Fail.mp4 109.6 MB11/5/2017 1:43:10 PM1
Glass Shattered With Electricity.mp4 58.7 MB11/5/2017 1:43:10 PM2
Bonkers Conkers.mp4 162.7 MB11/5/2017 1:43:24 PM1
Camcorder Trouble !.mp4 46.7 MB11/5/2017 1:43:53 PM2
Discharge Lighting and Blue Halide.mp4 19.3 MB11/5/2017 1:43:53 PM3
Photonicinduction Leaves You Tube Pt 1 - YouTube.mp4 126.3 MB11/5/2017 1:44:21 PM1
Hot Update !.mp4 89.4 MB11/5/2017 1:45:00 PM2
Mid Week Muck Up.mp4 83.0 MB11/5/2017 1:45:17 PM1
Triple Pop.mp4 125.1 MB11/5/2017 1:45:34 PM1
Photon Goes Driving ( 1 off ).mp4 95.9 MB11/5/2017 1:46:13 PM1
Mid Week Madness CRT Overdrive.mp4 66.4 MB11/5/2017 1:46:26 PM2
200 Kv On A CFL Growlamp.mp4 26.2 MB11/5/2017 1:46:41 PM4
Close Up 10KVA Transformer Mod.mp4 137.4 MB11/5/2017 1:46:52 PM1
Hair Dryer Flame Thrower.mp4 79.3 MB11/5/2017 1:47:01 PM1
Mercury Lamp Explodes FIRE !!!!!.mp4 52.6 MB11/5/2017 1:47:27 PM1
Dangerously Fast Very Large DC Brush Motor.mp4 48.4 MB11/5/2017 1:47:27 PM1
Bored with TV.mp4 26.3 MB11/5/2017 1:47:52 PM2
Turn The Telly Over.mp4 15.7 MB11/5/2017 1:48:09 PM1
Cordless Drill Battery Fix.mp4 113.7 MB11/5/2017 1:48:21 PM1
Rear Projection TV in Bits.mp4 116.8 MB11/5/2017 1:48:31 PM1
Cheap Back Up Power.mp4 173.0 MB11/5/2017 1:48:46 PM1
240v - 415v.mp4 131.7 MB11/5/2017 1:49:00 PM1
Huge Lamp Explodes.mp4 79.8 MB11/5/2017 1:49:30 PM2
Spark Plug and Capacitor Explosions.mp4 79.1 MB11/5/2017 1:49:41 PM1
Naughty Boy's Electromagnet.mp4 23.7 MB11/5/2017 1:49:41 PM1
Electric Meter Blown.mp4 101.4 MB11/5/2017 1:49:53 PM1
Laser Burns Camera.mp4 54.1 MB11/5/2017 1:50:08 PM1
Ignition Test.mp4 114.9 MB11/5/2017 1:50:20 PM1